Location: Gouvernes
(48.8601°N, 2.6907°E)
Time: 16:19:24
(UTC+00:00)

Cosmos 1697 Rocket - Pass Details

Date: 16 October 2021
Orbit: 834 x 842 km, 71.0° (Epoch: 28 November)

Event Time Altitude Azimuth Distance (km) Brightness Sun altitude
Rises 19:19:03 0° 240° (WSW) 3,391 6.5 -23.9°
Reaches altitude 10° 19:21:47 10° 250° (WSW) 2,459 5.8 -24.4°
Maximum altitude 19:26:45 31° 312° (NW) 1,441 4.4 -25.2°
Drops below altitude 10° 19:31:45 10° 14° (NNE) 2,467 5.1 -26.0°
Sets 19:34:29 0° 25° (NNE) 3,404 5.8 -26.4°
